Regional Weather Roundup
Issued by NWS

Home | Current Version | Previous Version | Text Only | Print | Product List | Glossary Off
Versions: 1 2 3 4 5 6 7 8 9 10 11 12 13 14 15 16 17 18 19 20 21 22 23 24 25 26 27 28

000
ASUS45 KCYS 221210
RWRWY

WYOMING REGIONAL WEATHER ROUNDUP
NATIONAL WEATHER SERVICE CHEYENNE WY
600 AM MDT FRI JUL 22 2016

NOTE:  "FAIR" INDICATES FEW OR NO CLOUDS BELOW 12,000 FEET
WITH NO SIGNIFICANT WEATHER AND/OR OBSTRUCTIONS TO VISIBILITY.

WYZ001-221300-
YELLOWSTONE NATIONAL PARK

CITY           SKY/WX    TMP DP  RH WIND       PRES   REMARKS
LK YELLOWSTONE   N/A     46  38  73 NW3       30.42R
6HR MIN TEMP:  45; 6HR MAX TEMP:  52;

W YELLOWSTONE  NOT AVBL

$$
WYZ002>013-054>058-071-098>099-221300-
NORTHERN WYOMING

CITY           SKY/WX    TMP DP  RH WIND       PRES   REMARKS
JACKSON        MOCLDY    54  41  62 N3        30.33R
CODY           FAIR      64  37  36 SE7       30.14R
GREYBULL       FAIR      65  41  41 W5        30.06R
6HR MIN TEMP:  65; 6HR MAX TEMP:  86;

WORLAND        FAIR      62  46  55 W5        30.08R
6HR MIN TEMP:  62; 6HR MAX TEMP:  84;

SHERIDAN       FAIR      61  45  55 CALM      30.05S
6HR MIN TEMP:  60; 6HR MAX TEMP:  73;

BUFFALO        FAIR      68  38  33 SW6       30.13S
6HR MIN TEMP:  66; 6HR MAX TEMP:  81;

GILLETTE       FAIR      70  41  34 SE7       30.09S
6HR MIN TEMP:  65; 6HR MAX TEMP:  82;

HULETT         FAIR      70  37  30 CALM      30.12R
NEWCASTLE      FAIR      79  50  36 E8        30.13S

$$
WYZ014>020-022>026-101>103-221300-
CENTRAL WYOMING

CITY           SKY/WX    TMP DP  RH WIND       PRES   REMARKS
BIG PINEY      FAIR      54  41  61 S5        30.37S
6HR MIN TEMP:  48; 6HR MAX TEMP:  66;

PINEDALE       FAIR      48  41  76 NW6       30.39R
DUBOIS         FAIR      61  37  41 W13       30.34R HAZE
LANDER         FAIR      68  39  34 N6        30.19R
6HR MIN TEMP:  64; 6HR MAX TEMP:  82;

RIVERTON       FAIR      61  46  57 NW8       30.20R
6HR MIN TEMP:  60; 6HR MAX TEMP:  77;

CASPER         FAIR      63  44  50 SW13      30.22R
6HR MIN TEMP:  59; 6HR MAX TEMP:  76;

DOUGLAS          N/A    N/A N/A N/A MISG      30.19S

$$
WYZ021-027>030-104>119-221300-
SOUTHERN WYOMING

CITY           SKY/WX    TMP DP  RH WIND       PRES   REMARKS
EVANSTON       FAIR      64  43  46 SW9G20    30.35S
6HR MIN TEMP:  61; 6HR MAX TEMP:  68;

KEMMERER         N/A     59  36  41 N7        30.38S
FORT BRIDGER   FAIR      69  42  37 CALM      30.37S
ROCK SPRINGS   FAIR      59  43  55 CALM      30.35R
6HR MIN TEMP:  56; 6HR MAX TEMP:  67;

DIXON          FAIR      56  47  72 E8        30.40R
RAWLINS        FAIR      50  40  68 N3        30.37R
6HR MIN TEMP:  49; 6HR MAX TEMP:  61;

SARATOGA       FAIR      55  46  71 S10G16    30.39S
LARAMIE        FAIR      56  44  64 S5        30.39R
6HR MIN TEMP:  52; 6HR MAX TEMP:  68;

CHEYENNE       CLOUDY    69  46  43 W6        30.28R
6HR MIN TEMP:  69; 6HR MAX TEMP:  75;

TORRINGTON     FAIR      69  59  70 VRB3      30.13R
6HR MIN TEMP:  68; 6HR MAX TEMP:  75;

PINE BLUFFS    FAIR      64  55  72 CALM      30.21R

$$




USA.gov is the U.S. government's official web portal to all federal, state and local government web resources and services.